Location: El Portezuelo
(28.4984°N, 16.3589°W)
Time: 00:11:44
(UTC+00:00)

COSMO-SKYMED 1 - Pass Details

Date: 20 January 2020
Orbit: 621 x 623 km, 97.9° (Epoch: 23 February)

Event Time Altitude Azimuth Distance (km) Brightness Sun altitude
Rises 06:43:37 0° 177° (S) 2,887 6.2 -16.4°
Reaches altitude 10° 06:45:50 10° 181° (S) 1,984 5.3 -15.9°
Maximum altitude 06:50:04 55° 260° (W) 746 2.6 -15.0°
Drops below altitude 10° 06:54:19 10° 338° (NNW) 1,995 4.8 -14.1°
Enters shadow 06:55:04 - 340° (NNW) 2,295 5.1 -13.9°
